contact:dominique.lefevre@mio.osupytheas.fr, maurice.libes@osupytheas.fr
Project:EMSO Ligure-ouest http://www.emso-fr.org/EMSO-France
Sensor Aquadopp, line 13 Serial AQD14315 
DOI : "https://doi.org/10.17882/74513; https://doi.org/10.17882/83244" 
Title:EMSO Ligure Ouest : Data ligne ALBATROSS capteur AQUADOPP - deploiement 2021
Id,Date,Profondeur,Latitude,Longitude,X_East,Y_North,Z_Up,Amplitude_X,Amplitude_Y,Amplitude_Z,Batterie,SoundSpeed,Heading,Pitch,Roll,Pressure,Temperature,Speed,Direction
, , m, degrees North, degrees East, m.s-1, m.s-1,m.s-1, 1, 1, 1, Volt, m.s-1, degree, degree, degree, dbar, degree_C, m.s-1, degree
09,2022-02-22T21:30:00,2000.0,42.79,6.0312,0.035,-0.01,0.003,79.0,75.0,77.0,12.1,1504.7,355.3,-0.5,1.0,1990.474,13.29,0.036,105.9
09,2022-02-22T22:00:00,2000.0,42.79,6.0312,0.007,-0.039,0.002,79.0,74.0,77.0,12.1,1504.7,343.1,-0.6,1.0,1990.517,13.29,0.039,169.8
09,2022-02-22T22:30:00,2000.0,42.79,6.0312,0.0,-0.043,0.023,77.0,73.0,77.0,12.1,1504.7,333.5,-0.7,1.0,1990.55,13.29,0.043,180.0
09,2022-02-22T23:00:00,2000.0,42.79,6.0312,0.013,-0.019,-0.002,80.0,75.0,78.0,12.1,1504.7,324.2,-0.7,1.0,1990.574,13.29,0.023,145.6
09,2022-02-23T00:00:00,2000.0,42.79,6.0312,0.017,-0.025,0.032,77.0,71.0,78.0,12.1,1504.7,325.0,-0.7,1.0,1990.524,13.29,0.03,145.8
09,2022-02-23T00:30:00,2000.0,42.79,6.0312,0.01,-0.019,-0.004,77.0,71.0,79.0,12.1,1504.7,327.0,-0.7,1.0,1990.537,13.29,0.021,152.2
09,2022-02-23T01:00:00,2000.0,42.79,6.0312,0.004,-0.013,0.026,79.0,75.0,76.0,12.1,1504.7,330.1,-0.7,1.0,1990.507,13.29,0.013,162.9
09,2022-02-23T01:30:00,2000.0,42.79,6.0312,-0.007,0.0,0.005,72.0,71.0,79.0,12.1,1504.7,337.6,-0.6,1.0,1990.523,13.29,0.007,270.0
09,2022-02-23T02:00:00,2000.0,42.79,6.0312,-0.008,0.002,0.015,78.0,73.0,77.0,12.1,1504.7,342.6,-0.7,1.0,1990.562,13.29,0.008,284.0
09,2022-02-23T02:30:00,2000.0,42.79,6.0312,-0.018,0.021,-0.005,75.0,73.0,78.0,12.1,1504.7,345.9,-0.7,1.0,1990.524,13.28,0.027,319.4
09,2022-02-23T03:00:00,2000.0,42.79,6.0312,0.006,0.02,0.007,79.0,74.0,75.0,12.1,1504.7,343.8,-0.7,0.9,1990.482,13.28,0.02,16.7
09,2022-02-23T03:30:00,2000.0,42.79,6.0312,-0.011,0.012,-0.006,79.0,75.0,77.0,12.1,1504.7,335.0,-0.7,1.0,1990.546,13.28,0.016,317.5
09,2022-02-23T04:00:00,2000.0,42.79,6.0312,0.004,0.02,-0.007,76.0,74.0,76.0,12.1,1504.7,310.3,-0.7,1.0,1990.495,13.28,0.02,11.3
09,2022-02-23T04:30:00,2000.0,42.79,6.0312,-0.005,0.024,0.006,77.0,72.0,77.0,12.1,1504.7,306.2,-0.7,1.0,1990.488,13.28,0.024,348.2
09,2022-02-23T05:00:00,2000.0,42.79,6.0312,0.002,0.011,-0.02,78.0,73.0,81.0,12.1,1504.7,290.7,-0.9,1.0,1990.454,13.28,0.011,10.3
09,2022-02-23T05:30:00,2000.0,42.79,6.0312,-0.007,0.031,-0.001,78.0,73.0,76.0,12.1,1504.7,285.6,-0.5,1.1,1990.469,13.28,0.031,347.3
09,2022-02-23T06:00:00,2000.0,42.79,6.0312,0.012,0.013,-0.018,78.0,74.0,75.0,12.1,1504.7,283.0,-0.6,1.1,1990.5,13.28,0.017,42.7
09,2022-02-23T06:30:00,2000.0,42.79,6.0312,0.015,0.014,0.0,78.0,73.0,77.0,12.1,1504.7,285.8,-0.5,1.0,1990.452,13.28,0.02,47.0
09,2022-02-23T07:00:00,2000.0,42.79,6.0312,0.002,0.034,0.004,79.0,74.0,77.0,12.1,1504.7,282.4,-0.5,1.1,1990.486,13.28,0.034,3.4
09,2022-02-23T07:30:00,2000.0,42.79,6.0312,0.01,0.026,-0.012,79.0,72.0,75.0,12.1,1504.7,274.2,-0.6,1.1,1990.5,13.28,0.027,21.0
09,2022-02-23T08:00:00,2000.0,42.79,6.0312,0.002,0.032,0.001,78.0,74.0,75.0,12.1,1504.7,275.3,-0.8,1.1,1990.533,13.28,0.032,3.6
09,2022-02-23T08:30:00,2000.0,42.79,6.0312,0.005,0.04,-0.007,78.0,72.0,78.0,12.1,1504.7,279.7,-0.7,1.2,1990.557,13.28,0.04,7.1
09,2022-02-23T09:00:00,2000.0,42.79,6.0312,0.002,0.039,-0.009,79.0,73.0,77.0,12.1,1504.7,277.2,-0.8,1.2,1990.569,13.28,0.039,2.9
09,2022-02-23T09:30:00,2000.0,42.79,6.0312,0.017,0.022,0.006,76.0,74.0,78.0,12.1,1504.7,287.0,-0.9,1.0,1990.564,13.28,0.027,37.7
09,2022-02-23T10:00:00,2000.0,42.79,6.0312,0.011,0.039,-0.005,78.0,74.0,79.0,12.1,1504.7,284.5,-0.5,1.1,1990.598,13.28,0.04,15.7
09,2022-02-23T10:30:00,2000.0,42.79,6.0312,0.033,0.037,-0.032,76.0,73.0,74.0,12.1,1504.7,295.5,-1.0,1.2,1990.618,13.29,0.049,41.7
09,2022-02-23T11:00:00,2000.0,42.79,6.0312,0.0,0.031,-0.022,80.0,73.0,76.0,12.1,1504.7,296.9,-0.7,1.2,1990.701,13.29,0.03,0.0
09,2022-02-23T11:30:00,2000.0,42.79,6.0312,0.003,0.027,-0.023,79.0,73.0,78.0,12.1,1504.7,297.8,-1.0,1.1,1990.608,13.29,0.027,6.3
09,2022-02-23T12:00:00,2000.0,42.79,6.0312,-0.009,0.029,-0.018,77.0,74.0,77.0,12.1,1504.7,290.6,-1.2,1.1,1990.621,13.29,0.03,342.8
09,2022-02-23T13:00:00,2000.0,42.79,6.0312,0.002,0.066,-0.015,78.0,75.0,77.0,12.1,1504.7,288.7,-1.2,1.2,1990.571,13.29,0.066,1.7
09,2022-02-23T13:30:00,2000.0,42.79,6.0312,0.008,0.037,0.01,78.0,72.0,75.0,12.1,1504.7,297.2,-0.7,1.1,1990.61,13.29,0.037,12.2
09,2022-02-23T14:00:00,2000.0,42.79,6.0312,0.013,0.047,0.022,76.0,75.0,77.0,12.1,1504.7,291.0,-0.9,1.2,1990.598,13.29,0.048,15.5
09,2022-02-23T14:30:00,2000.0,42.79,6.0312,0.0,0.052,-0.005,80.0,76.0,76.0,12.1,1504.7,288.4,-1.1,1.1,1990.55,13.29,0.052,0.0
09,2022-02-23T15:00:00,2000.0,42.79,6.0312,0.01,0.037,0.005,77.0,74.0,78.0,12.1,1504.7,285.3,-1.3,1.2,1990.549,13.28,0.038,15.1
09,2022-02-23T15:30:00,2000.0,42.79,6.0312,-0.027,0.052,0.002,78.0,74.0,77.0,12.1,1504.7,275.6,-0.4,1.2,1990.573,13.28,0.058,332.6
09,2022-02-23T16:00:00,2000.0,42.79,6.0312,-0.004,0.024,-0.03,78.0,73.0,75.0,12.1,1504.7,274.5,-0.5,1.1,1990.52,13.28,0.024,350.5
09,2022-02-23T16:30:00,2000.0,42.79,6.0312,-0.03,0.058,0.002,78.0,73.0,77.0,12.1,1504.7,269.7,-1.2,1.1,1990.521,13.28,0.065,332.6
09,2022-02-23T17:00:00,2000.0,42.79,6.0312,-0.015,0.06,0.011,78.0,73.0,75.0,12.1,1504.7,268.8,-0.9,1.1,1990.544,13.28,0.061,346.0
09,2022-02-23T17:30:00,2000.0,42.79,6.0312,-0.029,0.037,-0.023,79.0,74.0,81.0,12.1,1504.7,264.5,-0.9,1.1,1990.474,13.28,0.047,321.9
09,2022-02-23T18:00:00,2000.0,42.79,6.0312,-0.021,0.041,-0.001,77.0,75.0,75.0,12.1,1504.7,265.4,-1.3,1.0,1990.493,13.28,0.046,332.9
09,2022-02-23T18:30:00,2000.0,42.79,6.0312,-0.005,0.03,-0.018,79.0,73.0,78.0,12.1,1504.7,266.7,-1.0,1.1,1990.472,13.29,0.03,350.5
09,2022-02-23T19:00:00,2000.0,42.79,6.0312,-0.016,0.023,0.008,79.0,74.0,79.0,12.1,1504.7,264.7,-0.7,1.1,1990.475,13.29,0.028,325.2
09,2022-02-23T19:30:00,2000.0,42.79,6.0312,-0.022,0.048,0.001,79.0,76.0,79.0,12.1,1504.7,266.1,-0.9,1.2,1990.492,13.28,0.052,335.4
09,2022-02-23T20:00:00,2000.0,42.79,6.0312,-0.031,0.044,-0.016,77.0,73.0,76.0,12.1,1504.7,268.0,-0.5,1.2,1990.469,13.28,0.053,324.8
09,2022-02-23T20:30:00,2000.0,42.79,6.0312,-0.001,0.044,0.017,72.0,70.0,71.0,12.1,1504.7,271.2,-1.0,1.1,1990.494,13.28,0.044,358.7
09,2022-02-23T21:00:00,2000.0,42.79,6.0312,-0.017,0.036,-0.019,74.0,68.0,71.0,12.1,1504.7,272.7,-0.8,1.0,1990.543,13.28,0.039,334.7
